Location: Brno
(49.2000°N, 16.6330°E)
Time: 14:21:18
(UTC+02:00)

RESURS DK-1 - Visible Passes

Search period start: 28 July 2016 00:00
Search period end: 07 August 2016 00:00
Orbit: 559 x 562 km, 69.9° (Epoch: 28 July)

Date Brightness Start Highest point End Pass type
(mag) Time Alt. Az. Time Alt. Az. Time Alt. Az.
28 Jul 5.7 02:21:39 10° N 02:23:28 12° NE 02:25:17 10° ENE visible
28 Jul 2.9 03:58:16 10° NNW 04:02:24 63° ENE 04:06:30 10° SE visible
28 Jul 5.8 21:19:35 10° WNW 21:21:36 13° NW 21:23:36 10° N visible
29 Jul 5.5 02:20:04 10° N 02:22:29 15° NE 02:24:54 10° ENE visible
29 Jul 2.4 03:57:04 10° NNW 04:01:14 83° ENE 04:05:23 10° SSE visible
29 Jul 6.0 21:19:26 10° NW 21:20:37 11° NW 21:21:49 10° NNW visible
30 Jul 5.3 02:18:36 10° N 02:21:28 18° NE 02:24:20 10° E visible
30 Jul 2.3 03:55:54 10° NNW 04:00:03 75° WSW 04:04:10 10° SSE visible
31 Jul 4.9 02:17:11 10° N 02:20:26 21° NE 02:23:40 10° E visible
31 Jul 2.4 03:54:46 10° NW 03:58:50 56° WSW 04:02:53 10° SSE visible
01 Aug 4.5 02:15:51 10° N 02:19:23 26° NE 02:22:54 10° ESE visible
01 Aug 2.7 03:53:41 10° NW 03:57:36 42° WSW 04:01:30 10° S visible
02 Aug 4.1 02:14:31 10° NNW 02:18:18 32° NE 02:22:03 10° ESE visible
02 Aug 3.1 03:52:39 10° NW 03:56:21 32° WSW 03:59:13 15° SSW visible
03 Aug 3.6 02:13:14 10° NNW 02:17:11 41° NE 02:20:37 13° ESE visible
03 Aug 3.5 03:51:41 10° NW 03:55:04 24° WSW 03:56:27 20° SW visible
04 Aug 5.4 00:35:46 10° NNE 00:37:01 11° NE 00:38:15 10° NE visible
04 Aug 3.0 02:11:59 10° NNW 02:16:04 53° NE 02:18:12 25° ESE visible
04 Aug 3.8 03:50:51 10° WNW 03:53:46 19° WSW 03:54:03 19° WSW visible
05 Aug 5.2 00:34:00 10° N 00:36:02 13° NE 00:38:04 10° ENE visible
05 Aug 2.5 02:10:46 10° NNW 02:14:55 70° ENE 02:16:02 45° SE visible
05 Aug 4.3 03:50:13 10° WNW 03:51:54 14° W 03:51:54 14° W visible
06 Aug 5.0 00:32:27 10° N 00:35:02 16° NE 00:37:36 10° ENE visible
06 Aug 2.2 02:09:33 10° NNW 02:13:44 89° W 02:14:02 76° SSE visible
